Time,TemperatureF,DewpointF,PressureIn,WindDirection,WindDirectionDegrees,WindSpeedMPH,WindSpeedGustMPH,Humidity,HourlyPrecipIn,Conditions,Clouds,dailyrainin,SoftwareType,DateUTC
2013-11-08 00:00:00,36.2,26.3,30.30,West,272,1.2,1.2,67,0.00,RA,,0.00,WeatherDisplay:10.37,2013-11-08 05:00:00,
2013-11-08 00:01:00,36.2,26.3,30.30,West,272,3.5,3.5,67,0.00,RA,,0.00,WeatherDisplay:10.37,2013-11-08 05:01:00,
2013-11-08 00:02:00,36.2,26.3,30.30,West,272,3.5,3.5,67,0.00,RA,,0.00,WeatherDisplay:10.37,2013-11-08 05:02:00,
2013-11-08 00:03:00,36.2,26.3,30.30,West,271,1.2,0.0,67,0.00,RA,,0.00,WeatherDisplay:10.37,2013-11-08 05:03:00,
2013-11-08 00:04:00,36.3,26.4,30.30,West,272,1.2,1.2,67,0.00,RA,,0.00,WeatherDisplay:10.37,2013-11-08 05:04:00,
2013-11-08 00:09:00,36.3,26.4,30.30,West,272,3.5,3.5,67,0.00,RA,,0.00,WeatherDisplay:10.37,2013-11-08 05:09:00,
2013-11-08 00:15:00,36.3,26.4,30.30,West,272,2.3,0.0,67,0.00,FEW,,0.00,WeatherDisplay:10.37,2013-11-08 05:15:00,
2013-11-08 00:20:00,36.2,26.3,30.30,West,272,2.3,2.3,67,0.00,FEW,,0.00,WeatherDisplay:10.37,2013-11-08 05:20:00,
2013-11-08 00:25:00,36.2,26.3,30.30,West,272,4.0,4.0,67,0.00,FEW,,0.00,WeatherDisplay:10.37,2013-11-08 05:25:00,
2013-11-08 00:30:00,36.2,26.3,30.30,West,272,2.3,2.3,67,0.00,FEW,,0.00,WeatherDisplay:10.37,2013-11-08 05:30:00,
2013-11-08 00:35:00,36.2,26.3,30.30,West,272,1.2,1.2,67,0.00,FEW,,0.00,WeatherDisplay:10.37,2013-11-08 05:35:00,
2013-11-08 00:40:00,36.2,26.3,30.30,West,272,3.5,3.5,67,0.00,FEW,,0.00,WeatherDisplay:10.37,2013-11-08 05:40:00,
2013-11-08 00:45:00,36.1,26.6,30.30,West,271,5.0,5.0,68,0.00,FEW,,0.00,WeatherDisplay:10.37,2013-11-08 05:45:00,
2013-11-08 00:50:00,36.1,26.6,30.31,West,268,6.0,6.0,68,0.00,FEW,,0.00,WeatherDisplay:10.37,2013-11-08 05:50:00,
2013-11-08 00:55:00,36.2,26.6,30.30,West,268,3.5,3.5,68,0.00,FEW,,0.00,WeatherDisplay:10.37,2013-11-08 05:55:00,
2013-11-08 01:00:00,36.2,26.6,30.30,West,267,4.0,4.0,68,0.00,FEW,,0.00,WeatherDisplay:10.37,2013-11-08 06:00:00,
2013-11-08 01:05:00,36.1,26.6,30.30,West,261,6.0,6.0,68,0.00,CLR,,0.00,WeatherDisplay:10.37,2013-11-08 06:05:00,
2013-11-08 01:10:00,36.2,26.6,30.30,West,260,4.6,4.6,68,0.00,CLR,,0.00,WeatherDisplay:10.37,2013-11-08 06:10:00,
2013-11-08 01:15:00,36.1,26.6,30.30,West,260,5.0,5.0,68,0.00,CLR,,0.00,WeatherDisplay:10.37,2013-11-08 06:15:00,
2013-11-08 01:20:00,36.0,26.5,30.30,West,260,5.0,5.0,68,0.00,CLR,,0.00,WeatherDisplay:10.37,2013-11-08 06:20:00,
2013-11-08 01:25:00,35.9,26.7,30.30,West,260,5.0,5.0,69,0.00,CLR,,0.00,WeatherDisplay:10.37,2013-11-08 06:25:00,
2013-11-08 01:30:00,35.7,26.5,30.30,West,260,4.0,4.0,69,0.00,CLR,,0.00,WeatherDisplay:10.37,2013-11-08 06:30:00,
2013-11-08 01:35:00,35.6,26.4,30.31,West,260,3.5,3.5,69,0.00,CLR,,0.00,WeatherDisplay:10.37,2013-11-08 06:35:00,
2013-11-08 01:40:00,35.5,26.3,30.31,West,262,5.0,5.0,69,0.00,CLR,,0.00,WeatherDisplay:10.37,2013-11-08 06:40:00,
2013-11-08 01:45:00,35.4,26.6,30.31,West,262,3.5,3.5,70,0.00,CLR,,0.00,WeatherDisplay:10.37,2013-11-08 06:45:00,
2013-11-08 01:50:00,35.2,26.4,30.31,West,261,2.3,2.3,70,0.00,CLR,,0.00,WeatherDisplay:10.37,2013-11-08 06:50:00,
2013-11-08 01:55:00,35.0,26.2,30.31,West,261,3.0,3.0,70,0.00,CLR,,0.00,WeatherDisplay:10.37,2013-11-08 06:55:00,
2013-11-08 02:00:00,34.8,26.4,30.31,West,261,0.0,0.0,71,0.00,CLR,,0.00,WeatherDisplay:10.37,2013-11-08 07:00:00,
2013-11-08 02:05:00,34.4,26.3,30.31,West,261,2.3,2.3,72,0.00,CLR,,0.00,WeatherDisplay:10.37,2013-11-08 07:05:00,
2013-11-08 02:10:00,34.3,26.2,30.31,West,262,1.2,1.2,72,0.00,CLR,,0.00,WeatherDisplay:10.37,2013-11-08 07:10:00,
2013-11-08 02:15:00,34.1,26.3,30.31,West,261,1.2,1.2,73,0.00,CLR,,0.00,WeatherDisplay:10.37,2013-11-08 07:15:00,
2013-11-08 02:20:00,34.1,26.3,30.32,West,264,5.0,5.0,73,0.00,CLR,,0.00,WeatherDisplay:10.37,2013-11-08 07:20:00,
2013-11-08 02:25:00,34.4,26.6,30.32,WNW,303,4.0,4.0,73,0.00,CLR,,0.00,WeatherDisplay:10.37,2013-11-08 07:25:00,
2013-11-08 02:30:00,34.9,27.1,30.32,NNW,348,3.5,3.5,73,0.00,CLR,,0.00,WeatherDisplay:10.37,2013-11-08 07:30:00,
2013-11-08 02:35:00,35.3,27.5,30.32,NNW,338,3.5,3.5,73,0.00,CLR,,0.00,WeatherDisplay:10.37,2013-11-08 07:35:00,
2013-11-08 02:40:00,35.4,27.3,30.32,NNW,337,3.5,3.5,72,0.00,CLR,,0.00,WeatherDisplay:10.37,2013-11-08 07:40:00,
2013-11-08 02:45:00,35.4,27.3,30.32,NNE,32,8.0,8.0,72,0.00,CLR,,0.00,WeatherDisplay:10.37,2013-11-08 07:45:00,
2013-11-08 02:50:00,35.4,27.6,30.32,NW,325,3.5,3.5,73,0.00,CLR,,0.00,WeatherDisplay:10.37,2013-11-08 07:50:00,
2013-11-08 02:55:00,35.4,27.3,30.32,NNW,343,5.0,5.0,72,0.00,CLR,,0.00,WeatherDisplay:10.37,2013-11-08 07:55:00,
2013-11-08 03:00:00,35.4,27.3,30.32,NNW,340,5.0,5.0,72,0.00,CLR,,0.00,WeatherDisplay:10.37,2013-11-08 08:00:00,
2013-11-08 03:05:00,35.4,27.6,30.32,NNW,337,5.0,5.0,73,0.00,CLR,,0.00,WeatherDisplay:10.37,2013-11-08 08:05:00,
2013-11-08 03:10:00,35.4,27.6,30.32,NNW,339,5.0,5.0,73,0.00,CLR,,0.00,WeatherDisplay:10.37,2013-11-08 08:10:00,
2013-11-08 03:15:00,35.4,27.6,30.32,NNW,334,3.0,3.0,73,0.00,CLR,,0.00,WeatherDisplay:10.37,2013-11-08 08:15:00,
2013-11-08 03:20:00,35.3,27.5,30.32,NNW,334,3.0,3.0,73,0.00,CLR,,0.00,WeatherDisplay:10.37,2013-11-08 08:20:00,
2013-11-08 03:25:00,35.1,27.3,30.33,NNW,336,2.0,2.0,73,0.00,CLR,,0.00,WeatherDisplay:10.37,2013-11-08 08:25:00,
2013-11-08 03:30:00,35.0,27.2,30.32,NNW,336,4.0,4.0,73,0.00,CLR,,0.00,WeatherDisplay:10.37,2013-11-08 08:30:00,
2013-11-08 03:35:00,34.9,27.5,30.33,NNW,338,4.0,4.0,74,0.00,CLR,,0.00,WeatherDisplay:10.37,2013-11-08 08:35:00,
2013-11-08 03:40:00,34.8,27.4,30.33,NNW,347,5.0,5.0,74,0.00,CLR,,0.00,WeatherDisplay:10.37,2013-11-08 08:40:00,
2013-11-08 03:45:00,34.9,27.5,30.33,North,7,6.0,6.0,74,0.00,CLR,,0.00,WeatherDisplay:10.37,2013-11-08 08:45:00,
2013-11-08 03:50:00,34.8,27.7,30.33,North,351,4.6,4.6,75,0.00,CLR,,0.00,WeatherDisplay:10.37,2013-11-08 08:50:00,
2013-11-08 03:55:00,34.7,27.6,30.33,NNW,334,6.0,6.0,75,0.00,CLR,,0.00,WeatherDisplay:10.37,2013-11-08 08:55:00,
2013-11-08 04:00:00,34.6,27.5,30.34,North,354,5.0,5.0,75,0.00,CLR,,0.00,WeatherDisplay:10.37,2013-11-08 09:00:00,
2013-11-08 04:05:00,34.6,27.5,30.34,North,358,4.6,4.6,75,0.00,CLR,,0.00,WeatherDisplay:10.37,2013-11-08 09:05:00,
2013-11-08 04:10:00,34.4,27.3,30.35,North,2,4.0,4.0,75,0.00,CLR,,0.00,WeatherDisplay:10.37,2013-11-08 09:10:00,
2013-11-08 04:15:00,34.4,27.3,30.35,North,2,3.5,3.5,75,0.00,CLR,,0.00,WeatherDisplay:10.37,2013-11-08 09:15:00,
2013-11-08 04:20:00,34.4,27.6,30.35,NW,324,6.0,6.0,76,0.00,CLR,,0.00,WeatherDisplay:10.37,2013-11-08 09:20:00,
2013-11-08 04:25:00,34.2,27.4,30.35,NW,326,3.5,3.5,76,0.00,CLR,,0.00,WeatherDisplay:10.37,2013-11-08 09:25:00,
2013-11-08 04:30:00,34.0,27.2,30.35,NW,326,2.0,2.0,76,0.00,CLR,,0.00,WeatherDisplay:10.37,2013-11-08 09:30:00,
2013-11-08 04:35:00,33.9,27.1,30.35,NW,325,2.0,2.0,76,0.00,CLR,,0.00,WeatherDisplay:10.37,2013-11-08 09:35:00,
2013-11-08 04:41:00,33.8,28.9,30.35,NW,325,1.2,1.2,82,0.00,CLR,,0.00,WeatherDisplay:10.37,2013-11-08 09:41:00,
2013-11-08 04:46:00,33.7,27.3,30.36,NW,325,0.0,0.0,77,0.00,CLR,,0.00,WeatherDisplay:10.37,2013-11-08 09:46:00,
2013-11-08 04:51:00,33.5,27.1,30.36,NW,324,3.5,3.5,77,0.00,CLR,,0.00,WeatherDisplay:10.37,2013-11-08 09:51:00,
2013-11-08 04:56:00,33.4,27.0,30.36,NW,324,1.2,0.0,77,0.00,CLR,,0.00,WeatherDisplay:10.37,2013-11-08 09:56:00,
2013-11-08 05:01:00,33.2,26.8,30.36,NW,324,1.2,1.2,77,0.00,CLR,,0.00,WeatherDisplay:10.37,2013-11-08 10:01:00,
2013-11-08 05:06:00,33.0,26.9,30.36,NW,324,0.0,0.0,78,0.00,CLR,,0.00,WeatherDisplay:10.37,2013-11-08 10:06:00,
2013-11-08 05:11:00,33.0,26.9,30.36,NW,324,0.0,0.0,78,0.00,CLR,,0.00,WeatherDisplay:10.37,2013-11-08 10:11:00,
2013-11-08 05:16:00,32.8,26.7,30.36,NW,324,1.2,1.2,78,0.00,CLR,,0.00,WeatherDisplay:10.37,2013-11-08 10:16:00,
2013-11-08 05:21:00,32.7,26.6,30.37,NW,324,1.2,1.2,78,0.00,CLR,,0.00,WeatherDisplay:10.37,2013-11-08 10:21:00,
2013-11-08 05:26:00,32.5,26.7,30.37,NW,324,2.3,2.3,79,0.00,CLR,,0.00,WeatherDisplay:10.37,2013-11-08 10:26:00,
2013-11-08 05:31:00,32.5,26.7,30.37,NW,324,0.0,0.0,79,0.00,CLR,,0.00,WeatherDisplay:10.37,2013-11-08 10:31:00,
2013-11-08 05:36:00,32.4,26.6,30.37,NW,324,0.0,0.0,79,0.00,CLR,,0.00,WeatherDisplay:10.37,2013-11-08 10:36:00,
2013-11-08 05:41:00,32.4,26.6,30.37,NW,324,1.2,0.0,79,0.00,CLR,,0.00,WeatherDisplay:10.37,2013-11-08 10:41:00,
2013-11-08 05:46:00,32.2,26.4,30.38,NW,324,0.0,0.0,79,0.00,CLR,,0.00,WeatherDisplay:10.37,2013-11-08 10:46:00,
2013-11-08 05:51:00,32.1,26.3,30.37,NW,324,1.2,1.2,79,0.00,CLR,,0.00,WeatherDisplay:10.37,2013-11-08 10:51:00,
2013-11-08 05:56:00,32.0,26.2,30.37,NW,324,0.0,0.0,79,0.00,CLR,,0.00,WeatherDisplay:10.37,2013-11-08 10:56:00,
2013-11-08 06:01:00,31.8,26.3,30.37,NW,324,0.0,0.0,80,0.00,CLR,,0.00,WeatherDisplay:10.37,2013-11-08 11:01:00,
2013-11-08 06:06:00,31.7,25.9,30.38,NW,324,0.0,0.0,79,0.00,CLR,,0.00,WeatherDisplay:10.37,2013-11-08 11:06:00,
2013-11-08 06:11:00,31.5,26.0,30.38,NW,324,0.0,0.0,80,0.00,CLR,,0.00,WeatherDisplay:10.37,2013-11-08 11:11:00,
2013-11-08 06:16:00,31.4,25.9,30.38,NW,324,0.0,0.0,80,0.00,CLR,,0.00,WeatherDisplay:10.37,2013-11-08 11:16:00,
2013-11-08 06:21:00,31.2,25.7,30.38,NW,324,0.0,0.0,80,0.00,CLR,,0.00,WeatherDisplay:10.37,2013-11-08 11:21:00,
2013-11-08 06:26:00,31.0,25.6,30.38,NW,324,0.0,0.0,80,0.00,CLR,,0.00,WeatherDisplay:10.37,2013-11-08 11:26:00,
2013-11-08 06:31:00,30.9,25.5,30.38,NW,324,0.0,0.0,80,0.00,CLR,,0.00,WeatherDisplay:10.37,2013-11-08 11:31:00,
2013-11-08 06:36:00,30.7,25.3,30.38,NW,324,0.0,0.0,80,0.00,CLR,,0.00,WeatherDisplay:10.37,2013-11-08 11:36:00,
2013-11-08 06:41:00,30.5,25.4,30.38,NW,324,0.0,0.0,81,0.00,CLR,,0.00,WeatherDisplay:10.37,2013-11-08 11:41:00,
2013-11-08 06:46:00,30.5,25.4,30.39,NW,324,0.0,0.0,81,0.00,CLR,,0.00,WeatherDisplay:10.37,2013-11-08 11:46:00,
2013-11-08 06:51:00,30.6,25.5,30.39,NW,324,0.0,0.0,81,0.00,CLR,,0.00,WeatherDisplay:10.37,2013-11-08 11:51:00,
2013-11-08 06:56:00,30.6,25.8,30.39,NW,324,0.0,0.0,82,0.00,CLR,,0.00,WeatherDisplay:10.37,2013-11-08 11:56:00,
2013-11-08 07:01:00,30.6,25.8,30.39,NW,324,0.0,0.0,82,0.00,CLR,,0.00,WeatherDisplay:10.37,2013-11-08 12:01:00,
2013-11-08 07:06:00,30.6,25.8,30.39,NW,324,0.0,0.0,82,0.00,CLR,,0.00,WeatherDisplay:10.37,2013-11-08 12:06:00,
2013-11-08 07:11:00,30.4,25.6,30.39,NW,324,0.0,0.0,82,0.00,CLR,,0.00,WeatherDisplay:10.37,2013-11-08 12:11:00,
2013-11-08 07:16:00,30.3,25.5,30.39,NW,324,0.0,0.0,82,0.00,CLR,,0.00,WeatherDisplay:10.37,2013-11-08 12:16:00,
2013-11-08 07:21:00,30.3,25.5,30.40,NW,324,0.0,0.0,82,0.00,CLR,,0.00,WeatherDisplay:10.37,2013-11-08 12:21:00,
2013-11-08 07:26:00,30.1,25.3,30.39,NW,324,0.0,0.0,82,0.00,CLR,,0.00,WeatherDisplay:10.37,2013-11-08 12:26:00,
2013-11-08 07:31:00,29.9,25.1,30.40,NW,324,0.0,0.0,82,0.00,CLR,,0.00,WeatherDisplay:10.37,2013-11-08 12:31:00,
2013-11-08 07:36:00,29.7,24.9,30.40,NW,324,0.0,0.0,82,0.00,CLR,,0.00,WeatherDisplay:10.37,2013-11-08 12:36:00,
2013-11-08 07:41:00,29.8,25.3,30.40,NW,324,0.0,0.0,83,0.00,CLR,,0.00,WeatherDisplay:10.37,2013-11-08 12:41:00,
2013-11-08 07:46:00,30.0,25.5,30.41,NW,324,0.0,0.0,83,0.00,CLR,,0.00,WeatherDisplay:10.37,2013-11-08 12:46:00,
2013-11-08 07:51:00,30.3,25.8,30.41,NW,324,0.0,0.0,83,0.00,CLR,,0.00,WeatherDisplay:10.37,2013-11-08 12:51:00,
2013-11-08 07:56:00,30.6,26.1,30.41,NW,324,0.0,0.0,83,0.00,CLR,,0.00,WeatherDisplay:10.37,2013-11-08 12:56:00,
2013-11-08 08:01:00,31.0,26.4,30.42,NW,324,0.0,0.0,83,0.00,CLR,,0.00,WeatherDisplay:10.37,2013-11-08 13:01:00,
2013-11-08 08:06:00,31.3,26.7,30.42,NW,324,0.0,0.0,83,0.00,CLR,,0.00,WeatherDisplay:10.37,2013-11-08 13:06:00,
2013-11-08 08:11:00,31.7,27.1,30.42,NW,324,1.2,0.0,83,0.00,CLR,,0.00,WeatherDisplay:10.37,2013-11-08 13:11:00,
2013-11-08 08:16:00,32.1,27.5,30.42,NW,324,0.0,0.0,83,0.00,CLR,,0.00,WeatherDisplay:10.37,2013-11-08 13:16:00,
2013-11-08 08:21:00,32.5,27.9,30.42,NW,324,2.0,2.0,83,0.00,CLR,,0.00,WeatherDisplay:10.37,2013-11-08 13:21:00,
2013-11-08 08:26:00,32.8,27.9,30.42,NW,324,1.2,0.0,82,0.00,CLR,,0.00,WeatherDisplay:10.37,2013-11-08 13:26:00,
2013-11-08 08:31:00,33.2,28.0,30.42,NW,324,0.0,0.0,81,0.00,CLR,,0.00,WeatherDisplay:10.37,2013-11-08 13:31:00,
2013-11-08 08:36:00,33.5,28.3,30.43,NW,324,0.0,0.0,81,0.00,CLR,,0.00,WeatherDisplay:10.37,2013-11-08 13:36:00,
2013-11-08 08:41:00,34.0,28.5,30.43,NW,324,1.0,0.0,80,0.00,CLR,,0.00,WeatherDisplay:10.37,2013-11-08 13:41:00,
2013-11-08 08:46:00,34.4,28.6,30.43,NW,324,2.3,2.3,79,0.00,CLR,,0.00,WeatherDisplay:10.37,2013-11-08 13:46:00,
2013-11-08 08:51:00,34.7,28.2,30.43,NW,324,2.3,0.0,77,0.00,CLR,,0.00,WeatherDisplay:10.37,2013-11-08 13:51:00,
2013-11-08 08:56:00,35.0,28.5,30.43,NW,324,0.0,0.0,77,0.00,CLR,,0.00,WeatherDisplay:10.37,2013-11-08 13:56:00,
2013-11-08 09:01:00,35.3,28.5,30.43,NW,324,2.3,2.3,76,0.00,CLR,,0.00,WeatherDisplay:10.37,2013-11-08 14:01:00,
2013-11-08 09:06:00,35.6,28.5,30.43,NW,324,3.5,3.5,75,0.00,CLR,,0.00,WeatherDisplay:10.37,2013-11-08 14:06:00,
2013-11-08 09:11:00,36.0,28.5,30.43,NW,324,0.0,0.0,74,0.00,CLR,,0.00,WeatherDisplay:10.37,2013-11-08 14:11:00,
2013-11-08 09:16:00,36.6,29.1,30.43,NW,324,3.5,3.5,74,0.00,CLR,,0.00,WeatherDisplay:10.37,2013-11-08 14:16:00,
2013-11-08 09:21:00,37.3,29.4,30.43,NW,324,0.0,0.0,73,0.00,CLR,,0.00,WeatherDisplay:10.37,2013-11-08 14:21:00,
2013-11-08 09:26:00,37.8,29.6,30.44,NW,324,0.0,0.0,72,0.00,CLR,,0.00,WeatherDisplay:10.37,2013-11-08 14:26:00,
2013-11-08 09:31:00,38.3,29.7,30.44,NW,324,0.0,0.0,71,0.00,CLR,,0.00,WeatherDisplay:10.37,2013-11-08 14:31:00,
2013-11-08 09:36:00,38.7,29.4,30.44,NW,324,1.2,1.2,69,0.00,CLR,,0.00,WeatherDisplay:10.37,2013-11-08 14:36:00,
2013-11-08 09:41:00,39.3,30.0,30.44,NW,324,2.3,2.3,69,0.00,CLR,,0.00,WeatherDisplay:10.37,2013-11-08 14:41:00,
2013-11-08 09:46:00,39.8,30.1,30.44,NW,324,3.5,3.5,68,0.00,CLR,,0.00,WeatherDisplay:10.37,2013-11-08 14:46:00,
2013-11-08 09:51:00,40.2,29.7,30.44,NW,324,3.5,3.5,66,0.00,CLR,,0.00,WeatherDisplay:10.37,2013-11-08 14:51:00,
2013-11-08 09:56:00,40.8,29.9,30.44,NW,324,2.0,2.0,65,0.00,CLR,,0.00,WeatherDisplay:10.37,2013-11-08 14:56:00,
2013-11-08 10:01:00,41.2,29.9,30.44,NW,324,3.5,3.5,64,0.00,CLR,,0.00,WeatherDisplay:10.37,2013-11-08 15:01:00,
2013-11-08 10:06:00,41.6,29.1,30.44,NNW,330,1.2,1.2,61,0.00,CLR,,0.00,WeatherDisplay:10.37,2013-11-08 15:06:00,
2013-11-08 10:11:00,42.2,30.1,30.44,NNW,329,3.5,3.5,62,0.00,CLR,,0.00,WeatherDisplay:10.37,2013-11-08 15:11:00,
2013-11-08 10:16:00,42.8,29.5,30.44,NNW,341,4.0,4.0,59,0.00,CLR,,0.00,WeatherDisplay:10.37,2013-11-08 15:16:00,
2013-11-08 10:21:00,43.3,29.1,30.44,NNW,333,3.5,3.5,57,0.00,CLR,,0.00,WeatherDisplay:10.37,2013-11-08 15:21:00,
2013-11-08 10:26:00,43.6,28.9,30.44,NNW,333,4.0,4.0,56,0.00,CLR,,0.00,WeatherDisplay:10.37,2013-11-08 15:26:00,
2013-11-08 10:31:00,43.8,28.2,30.44,NNW,340,5.0,5.0,54,0.00,CLR,,0.00,WeatherDisplay:10.37,2013-11-08 15:31:00,
2013-11-08 10:36:00,43.9,27.9,30.43,NNW,337,4.0,4.0,53,0.00,CLR,,0.00,WeatherDisplay:10.37,2013-11-08 15:36:00,
2013-11-08 10:41:00,44.0,28.0,30.43,NNW,341,1.2,1.2,53,0.00,CLR,,0.00,WeatherDisplay:10.37,2013-11-08 15:41:00,
2013-11-08 10:46:00,44.3,28.7,30.43,NNW,340,4.0,4.0,54,0.00,CLR,,0.00,WeatherDisplay:10.37,2013-11-08 15:46:00,
2013-11-08 10:51:00,44.5,28.4,30.43,NNW,340,2.3,2.3,53,0.00,CLR,,0.00,WeatherDisplay:10.37,2013-11-08 15:51:00,
2013-11-08 10:56:00,44.6,28.5,30.43,NNW,332,4.6,4.6,53,0.00,CLR,,0.00,WeatherDisplay:10.37,2013-11-08 15:56:00,
2013-11-08 11:01:00,44.8,29.2,30.43,NNW,333,2.3,2.3,54,0.00,CLR,,0.00,WeatherDisplay:10.37,2013-11-08 16:01:00,
2013-11-08 11:06:00,45.0,29.3,30.43,NNW,333,4.0,4.0,54,0.00,CLR,,0.00,WeatherDisplay:10.37,2013-11-08 16:06:00,
2013-11-08 11:11:00,45.3,29.6,30.43,NNW,333,1.2,0.0,54,0.00,CLR,,0.00,WeatherDisplay:10.37,2013-11-08 16:11:00,
2013-11-08 11:16:00,45.3,29.2,30.43,NNW,332,3.5,3.5,53,0.00,CLR,,0.00,WeatherDisplay:10.37,2013-11-08 16:16:00,
2013-11-08 11:21:00,45.6,29.9,30.43,NNW,332,3.0,3.0,54,0.00,CLR,,0.00,WeatherDisplay:10.37,2013-11-08 16:21:00,
2013-11-08 11:26:00,45.8,30.1,30.43,NNW,332,2.3,2.3,54,0.00,CLR,,0.00,WeatherDisplay:10.37,2013-11-08 16:26:00,
2013-11-08 11:31:00,46.0,29.3,30.43,NNW,339,6.0,6.0,52,0.00,CLR,,0.00,WeatherDisplay:10.37,2013-11-08 16:31:00,
2013-11-08 11:36:00,46.1,29.4,30.43,NE,45,4.0,4.0,52,0.00,CLR,,0.00,WeatherDisplay:10.37,2013-11-08 16:36:00,
2013-11-08 11:41:00,46.4,30.2,30.43,NE,39,2.3,2.3,53,0.00,CLR,,0.00,WeatherDisplay:10.37,2013-11-08 16:41:00,
2013-11-08 11:46:00,46.6,28.9,30.43,North,7,6.0,6.0,50,0.00,CLR,,0.00,WeatherDisplay:10.37,2013-11-08 16:46:00,
2013-11-08 11:51:00,46.5,29.3,30.43,West,278,2.3,2.3,51,0.00,CLR,,0.00,WeatherDisplay:10.37,2013-11-08 16:51:00,
2013-11-08 11:56:00,46.8,29.6,30.42,NW,325,4.6,4.6,51,0.00,CLR,,0.00,WeatherDisplay:10.37,2013-11-08 16:56:00,
2013-11-08 12:01:00,46.8,29.6,30.42,NW,314,0.0,0.0,51,0.00,CLR,,0.00,WeatherDisplay:10.37,2013-11-08 17:01:00,
2013-11-08 12:06:00,47.0,30.3,30.42,NW,316,2.3,2.3,52,0.00,CLR,,0.00,WeatherDisplay:10.37,2013-11-08 17:06:00,
2013-11-08 12:11:00,47.2,29.5,30.41,NW,323,1.2,1.2,50,0.00,CLR,,0.00,WeatherDisplay:10.37,2013-11-08 17:11:00,
2013-11-08 12:16:00,47.6,30.3,30.41,NW,322,2.3,2.3,51,0.00,CLR,,0.00,WeatherDisplay:10.37,2013-11-08 17:16:00,
2013-11-08 12:21:00,47.7,29.5,30.41,NW,305,4.6,4.6,49,0.00,CLR,,0.00,WeatherDisplay:10.37,2013-11-08 17:21:00,
2013-11-08 12:26:00,47.7,29.5,30.41,WNW,291,5.0,5.0,49,0.00,CLR,,0.00,WeatherDisplay:10.37,2013-11-08 17:26:00,
2013-11-08 12:31:00,47.8,29.5,30.41,WNW,298,4.0,4.0,49,0.00,CLR,,0.00,WeatherDisplay:10.37,2013-11-08 17:31:00,
2013-11-08 12:36:00,48.1,29.8,30.40,WNW,299,4.0,4.0,49,0.00,CLR,,0.00,WeatherDisplay:10.37,2013-11-08 17:36:00,
2013-11-08 12:41:00,48.1,28.8,30.40,NW,319,4.0,4.0,47,0.00,CLR,,0.00,WeatherDisplay:10.37,2013-11-08 17:41:00,
2013-11-08 12:46:00,48.3,30.0,30.40,North,7,6.0,6.0,49,0.00,CLR,,0.00,WeatherDisplay:10.37,2013-11-08 17:46:00,
2013-11-08 12:51:00,48.2,29.9,30.40,WNW,291,5.8,5.8,49,0.00,CLR,,0.00,WeatherDisplay:10.37,2013-11-08 17:51:00,
2013-11-08 12:56:00,48.3,29.0,30.40,NNW,345,5.8,5.8,47,0.00,CLR,,0.00,WeatherDisplay:10.37,2013-11-08 17:56:00,
2013-11-08 13:01:00,48.3,29.0,30.39,NE,45,6.0,6.0,47,0.00,CLR,,0.00,WeatherDisplay:10.37,2013-11-08 18:01:00,
2013-11-08 13:06:00,48.7,29.9,30.39,NNE,18,3.5,3.5,48,0.00,CLR,,0.00,WeatherDisplay:10.37,2013-11-08 18:06:00,
2013-11-08 13:11:00,49.2,29.3,30.39,NNE,17,4.0,4.0,46,0.00,CLR,,0.00,WeatherDisplay:10.37,2013-11-08 18:11:00,
2013-11-08 13:16:00,49.5,29.6,30.39,North,353,4.6,4.6,46,0.00,CLR,,0.00,WeatherDisplay:10.37,2013-11-08 18:16:00,
2013-11-08 13:21:00,49.6,29.6,30.39,North,349,5.0,5.0,46,0.00,CLR,,0.00,WeatherDisplay:10.37,2013-11-08 18:21:00,
2013-11-08 13:26:00,49.6,30.2,30.38,NNW,348,5.0,5.0,47,0.00,CLR,,0.00,WeatherDisplay:10.37,2013-11-08 18:26:00,
2013-11-08 13:31:00,49.6,30.7,30.38,NW,310,2.3,2.3,48,0.00,CLR,,0.00,WeatherDisplay:10.37,2013-11-08 18:31:00,
2013-11-08 13:36:00,49.8,29.8,30.38,NW,318,3.5,3.5,46,0.00,CLR,,0.00,WeatherDisplay:10.37,2013-11-08 18:36:00,
2013-11-08 13:41:00,49.4,29.5,30.38,NE,38,1.2,1.2,46,0.00,CLR,,0.00,WeatherDisplay:10.37,2013-11-08 18:41:00,
2013-11-08 13:46:00,49.8,30.4,30.38,NE,37,0.0,0.0,47,0.00,CLR,,0.00,WeatherDisplay:10.37,2013-11-08 18:46:00,
2013-11-08 13:51:00,50.3,30.3,30.38,WNW,284,5.0,5.0,46,0.00,CLR,,0.00,WeatherDisplay:10.37,2013-11-08 18:51:00,
2013-11-08 13:56:00,50.4,30.4,30.38,NNE,25,5.0,5.0,46,0.00,CLR,,0.00,WeatherDisplay:10.37,2013-11-08 18:56:00,
2013-11-08 14:01:00,50.1,29.6,30.38,NNE,17,3.5,3.5,45,0.00,CLR,,0.00,WeatherDisplay:10.37,2013-11-08 19:01:00,
2013-11-08 14:06:00,50.0,29.5,30.38,NNE,17,5.8,5.8,45,0.00,CLR,,0.00,WeatherDisplay:10.37,2013-11-08 19:06:00,
2013-11-08 14:11:00,50.2,30.7,30.38,NNE,17,1.0,1.0,47,0.00,CLR,,0.00,WeatherDisplay:10.37,2013-11-08 19:11:00,
2013-11-08 14:16:00,50.7,29.6,30.37,NNE,24,3.5,3.5,44,0.00,CLR,,0.00,WeatherDisplay:10.37,2013-11-08 19:16:00,
2013-11-08 14:21:00,50.6,29.5,30.37,NNE,25,0.0,0.0,44,0.00,CLR,,0.00,WeatherDisplay:10.37,2013-11-08 19:21:00,
2013-11-08 14:26:00,51.2,30.0,30.37,NNE,25,1.2,1.2,44,0.00,CLR,,0.00,WeatherDisplay:10.37,2013-11-08 19:26:00,
2013-11-08 14:31:00,51.5,29.7,30.37,NNE,18,1.2,1.2,43,0.00,CLR,,0.00,WeatherDisplay:10.37,2013-11-08 19:31:00,
2013-11-08 14:36:00,51.4,29.1,30.37,North,7,4.0,4.0,42,0.00,CLR,,0.00,WeatherDisplay:10.37,2013-11-08 19:36:00,
2013-11-08 14:41:00,51.5,29.1,30.37,North,7,3.5,3.5,42,0.00,CLR,,0.00,WeatherDisplay:10.37,2013-11-08 19:41:00,
2013-11-08 14:46:00,51.3,30.1,30.37,North,7,0.0,0.0,44,0.00,CLR,,0.00,WeatherDisplay:10.37,2013-11-08 19:46:00,
2013-11-08 14:51:00,51.3,29.5,30.36,North,7,2.3,2.3,43,0.00,CLR,,0.00,WeatherDisplay:10.37,2013-11-08 19:51:00,
2013-11-08 14:56:00,51.4,29.1,30.36,North,7,2.3,2.3,42,0.00,CLR,,0.00,WeatherDisplay:10.37,2013-11-08 19:56:00,
2013-11-08 15:01:00,51.7,29.3,30.36,North,7,3.5,0.0,42,0.00,CLR,,0.00,WeatherDisplay:10.37,2013-11-08 20:01:00,
2013-11-08 15:06:00,52.1,29.7,30.36,NNE,12,1.0,1.0,42,0.00,CLR,,0.00,WeatherDisplay:10.37,2013-11-08 20:06:00,
2013-11-08 15:11:00,52.0,29.6,30.36,North,7,2.3,2.3,42,0.00,CLR,,0.00,WeatherDisplay:10.37,2013-11-08 20:11:00,
2013-11-08 15:16:00,52.1,29.1,30.36,NNE,12,2.3,2.3,41,0.00,CLR,,0.00,WeatherDisplay:10.37,2013-11-08 20:16:00,
2013-11-08 15:21:00,52.0,29.0,30.35,NNE,12,1.2,0.0,41,0.00,CLR,,0.00,WeatherDisplay:10.37,2013-11-08 20:21:00,
2013-11-08 15:26:00,51.8,28.8,30.35,West,274,1.0,1.0,41,0.00,CLR,,0.00,WeatherDisplay:10.37,2013-11-08 20:26:00,
2013-11-08 15:31:00,52.1,27.9,30.35,WNW,283,3.5,3.5,39,0.00,CLR,,0.00,WeatherDisplay:10.37,2013-11-08 20:31:00,
2013-11-08 15:36:00,52.0,28.4,30.35,WNW,285,1.2,0.0,40,0.00,CLR,,0.00,WeatherDisplay:10.37,2013-11-08 20:36:00,
2013-11-08 15:41:00,52.0,29.0,30.35,WNW,285,1.2,0.0,41,0.00,CLR,,0.00,WeatherDisplay:10.37,2013-11-08 20:41:00,
2013-11-08 15:46:00,52.1,27.9,30.35,WNW,285,1.2,0.0,39,0.00,CLR,,0.00,WeatherDisplay:10.37,2013-11-08 20:46:00,
2013-11-08 15:51:00,52.8,29.1,30.35,WNW,285,1.0,1.0,40,0.00,CLR,,0.00,WeatherDisplay:10.37,2013-11-08 20:51:00,
2013-11-08 15:56:00,53.0,28.7,30.35,WNW,284,1.2,1.2,39,0.00,CLR,,0.00,WeatherDisplay:10.37,2013-11-08 20:56:00,
2013-11-08 16:01:00,52.6,28.9,30.34,WNW,284,1.2,1.2,40,0.00,CLR,,0.00,WeatherDisplay:10.37,2013-11-08 21:01:00,
2013-11-08 16:06:00,52.3,29.3,30.34,WNW,284,0.0,0.0,41,0.00,CLR,,0.00,WeatherDisplay:10.37,2013-11-08 21:06:00,
2013-11-08 16:11:00,52.7,29.6,30.34,WNW,284,0.0,0.0,41,0.00,CLR,,0.00,WeatherDisplay:10.37,2013-11-08 21:11:00,
2013-11-08 16:16:00,53.0,28.7,30.34,WNW,284,1.2,1.2,39,0.00,CLR,,0.00,WeatherDisplay:10.37,2013-11-08 21:16:00,
2013-11-08 16:21:00,53.0,29.3,30.34,WNW,284,1.2,0.0,40,0.00,CLR,,0.00,WeatherDisplay:10.37,2013-11-08 21:21:00,
2013-11-08 16:26:00,52.9,29.2,30.33,WNW,284,1.2,0.0,40,0.00,CLR,,0.00,WeatherDisplay:10.37,2013-11-08 21:26:00,
2013-11-08 16:31:00,52.7,29.0,30.33,WNW,284,2.3,2.3,40,0.00,CLR,,0.00,WeatherDisplay:10.37,2013-11-08 21:31:00,
2013-11-08 16:36:00,52.3,28.7,30.33,WNW,283,1.2,0.0,40,0.00,CLR,,0.00,WeatherDisplay:10.37,2013-11-08 21:36:00,
2013-11-08 16:41:00,51.9,28.3,30.33,WNW,284,0.0,0.0,40,0.00,CLR,,0.00,WeatherDisplay:10.37,2013-11-08 21:41:00,
2013-11-08 16:46:00,51.5,27.9,30.34,WNW,284,1.0,1.0,40,0.00,CLR,,0.00,WeatherDisplay:10.37,2013-11-08 21:46:00,
2013-11-08 16:51:00,51.2,27.7,30.34,WNW,284,1.2,0.0,40,0.00,CLR,,0.00,WeatherDisplay:10.37,2013-11-08 21:51:00,
2013-11-08 16:56:00,51.5,28.6,30.34,WNW,284,0.0,0.0,41,0.00,CLR,,0.00,WeatherDisplay:10.37,2013-11-08 21:56:00,
2013-11-08 17:01:00,51.7,28.1,30.34,WNW,284,1.2,1.2,40,0.00,CLR,,0.00,WeatherDisplay:10.37,2013-11-08 22:01:00,
2013-11-08 17:06:00,51.6,28.0,30.34,WNW,284,0.0,0.0,40,0.00,CLR,,0.00,WeatherDisplay:10.37,2013-11-08 22:06:00,
2013-11-08 17:11:00,51.7,28.7,30.34,WNW,284,0.0,0.0,41,0.00,CLR,,0.00,WeatherDisplay:10.37,2013-11-08 22:11:00,
2013-11-08 17:16:00,51.7,28.7,30.34,WNW,284,0.0,0.0,41,0.00,CLR,,0.00,WeatherDisplay:10.37,2013-11-08 22:16:00,
2013-11-08 17:21:00,51.5,29.1,30.33,WNW,283,0.0,0.0,42,0.00,CLR,,0.00,WeatherDisplay:10.37,2013-11-08 22:21:00,
2013-11-08 17:26:00,50.5,27.7,30.33,WNW,284,0.0,0.0,41,0.00,CLR,,0.00,WeatherDisplay:10.37,2013-11-08 22:26:00,
2013-11-08 17:31:00,49.7,29.2,30.33,WNW,284,0.0,0.0,45,0.00,CLR,,0.00,WeatherDisplay:10.37,2013-11-08 22:31:00,
2013-11-08 17:36:00,49.4,28.9,30.33,WNW,284,0.0,0.0,45,0.00,CLR,,0.00,WeatherDisplay:10.37,2013-11-08 22:36:00,
2013-11-08 17:41:00,49.2,29.3,30.33,WNW,284,0.0,0.0,46,0.00,CLR,,0.00,WeatherDisplay:10.37,2013-11-08 22:41:00,
2013-11-08 17:46:00,48.8,29.4,30.33,WNW,284,0.0,0.0,47,0.00,CLR,,0.00,WeatherDisplay:10.37,2013-11-08 22:46:00,
2013-11-08 17:51:00,48.4,29.6,30.33,WNW,283,0.0,0.0,48,0.00,CLR,,0.00,WeatherDisplay:10.37,2013-11-08 22:51:00,
2013-11-08 17:56:00,48.0,29.2,30.33,WNW,284,0.0,0.0,48,0.00,CLR,,0.00,WeatherDisplay:10.37,2013-11-08 22:56:00,
2013-11-08 18:01:00,47.4,29.2,30.33,WNW,284,0.0,0.0,49,0.00,CLR,,0.00,WeatherDisplay:10.37,2013-11-08 23:01:00,
2013-11-08 18:06:00,47.0,28.8,30.33,WNW,284,0.0,0.0,49,0.00,CLR,,0.00,WeatherDisplay:10.37,2013-11-08 23:06:00,
2013-11-08 18:11:00,46.5,29.3,30.33,WNW,284,0.0,0.0,51,0.00,CLR,,0.00,WeatherDisplay:10.37,2013-11-08 23:11:00,
2013-11-08 18:16:00,45.8,28.7,30.33,WNW,284,0.0,0.0,51,0.00,CLR,,0.00,WeatherDisplay:10.37,2013-11-08 23:16:00,
2013-11-08 18:21:00,45.5,28.4,30.33,WNW,284,0.0,0.0,51,0.00,CLR,,0.00,WeatherDisplay:10.37,2013-11-08 23:21:00,
2013-11-08 18:26:00,45.1,29.0,30.33,WNW,284,0.0,0.0,53,0.00,CLR,,0.00,WeatherDisplay:10.37,2013-11-08 23:26:00,
2013-11-08 18:31:00,44.8,28.7,30.33,WNW,284,0.0,0.0,53,0.00,CLR,,0.00,WeatherDisplay:10.37,2013-11-08 23:31:00,
2013-11-08 18:36:00,44.5,28.9,30.33,WNW,284,0.0,0.0,54,0.00,CLR,,0.00,WeatherDisplay:10.37,2013-11-08 23:36:00,
2013-11-08 18:41:00,44.2,28.6,30.33,WNW,284,0.0,0.0,54,0.00,CLR,,0.00,WeatherDisplay:10.37,2013-11-08 23:41:00,
2013-11-08 18:46:00,43.9,28.3,30.33,WNW,284,0.0,0.0,54,0.00,CLR,,0.00,WeatherDisplay:10.37,2013-11-08 23:46:00,
2013-11-08 18:51:00,43.5,28.8,30.33,WNW,284,0.0,0.0,56,0.00,CLR,,0.00,WeatherDisplay:10.37,2013-11-08 23:51:00,
2013-11-08 18:56:00,43.1,28.9,30.33,WNW,284,0.0,0.0,57,0.00,CLR,,0.00,WeatherDisplay:10.37,2013-11-08 23:56:00,
2013-11-08 19:01:00,42.8,28.6,30.33,WNW,284,0.0,0.0,57,0.00,CLR,,0.00,WeatherDisplay:10.37,2013-11-09 00:01:00,
2013-11-08 19:06:00,42.4,28.2,30.33,WNW,283,0.0,0.0,57,0.00,CLR,,0.00,WeatherDisplay:10.37,2013-11-09 00:06:00,
2013-11-08 19:11:00,42.2,28.5,30.33,WNW,284,0.0,0.0,58,0.00,CLR,,0.00,WeatherDisplay:10.37,2013-11-09 00:11:00,
2013-11-08 19:16:00,41.9,28.2,30.33,WNW,284,0.0,0.0,58,0.00,CLR,,0.00,WeatherDisplay:10.37,2013-11-09 00:16:00,
2013-11-08 19:21:00,41.7,28.4,30.33,WNW,284,0.0,0.0,59,0.00,CLR,,0.00,WeatherDisplay:10.37,2013-11-09 00:21:00,
2013-11-08 19:26:00,41.4,28.1,30.33,WNW,284,0.0,0.0,59,0.00,CLR,,0.00,WeatherDisplay:10.37,2013-11-09 00:26:00,
2013-11-08 19:31:00,41.2,28.4,30.34,WNW,283,0.0,0.0,60,0.00,CLR,,0.00,WeatherDisplay:10.37,2013-11-09 00:31:00,
2013-11-08 19:36:00,41.0,28.2,30.33,WNW,284,0.0,0.0,60,0.00,CLR,,0.00,WeatherDisplay:10.37,2013-11-09 00:36:00,
2013-11-08 19:41:00,40.8,28.0,30.34,WNW,283,0.0,0.0,60,0.00,CLR,,0.00,WeatherDisplay:10.37,2013-11-09 00:41:00,
2013-11-08 19:46:00,40.6,27.8,30.33,WNW,284,0.0,0.0,60,0.00,CLR,,0.00,WeatherDisplay:10.37,2013-11-09 00:46:00,
2013-11-08 19:51:00,40.4,27.6,30.33,WNW,284,0.0,0.0,60,0.00,CLR,,0.00,WeatherDisplay:10.37,2013-11-09 00:51:00,
2013-11-08 19:56:00,40.2,27.8,30.33,WNW,283,0.0,0.0,61,0.00,CLR,,0.00,WeatherDisplay:10.37,2013-11-09 00:56:00,
2013-11-08 20:01:00,40.1,27.7,30.33,WNW,284,0.0,0.0,61,0.00,CLR,,0.00,WeatherDisplay:10.37,2013-11-09 01:01:00,
2013-11-08 20:06:00,39.9,28.3,30.33,WNW,284,0.0,0.0,63,0.00,CLR,,0.00,WeatherDisplay:10.37,2013-11-09 01:06:00,
2013-11-08 20:11:00,39.7,28.1,30.32,WNW,283,0.0,0.0,63,0.00,CLR,,0.00,WeatherDisplay:10.37,2013-11-09 01:11:00,
2013-11-08 20:16:00,39.5,27.9,30.32,WNW,283,0.0,0.0,63,0.00,CLR,,0.00,WeatherDisplay:10.37,2013-11-09 01:16:00,
2013-11-08 20:21:00,39.4,28.2,30.32,WNW,284,0.0,0.0,64,0.00,CLR,,0.00,WeatherDisplay:10.37,2013-11-09 01:21:00,
2013-11-08 20:26:00,39.3,27.7,30.32,WNW,284,0.0,0.0,63,0.00,CLR,,0.00,WeatherDisplay:10.37,2013-11-09 01:26:00,
2013-11-08 20:31:00,39.2,28.0,30.32,WNW,283,0.0,0.0,64,0.00,CLR,,0.00,WeatherDisplay:10.37,2013-11-09 01:31:00,
2013-11-08 20:36:00,39.1,27.6,30.32,WNW,283,0.0,0.0,63,0.00,CLR,,0.00,WeatherDisplay:10.37,2013-11-09 01:36:00,
2013-11-08 20:41:00,39.1,27.6,30.32,WNW,284,0.0,0.0,63,0.00,CLR,,0.00,WeatherDisplay:10.37,2013-11-09 01:41:00,
2013-11-08 20:46:00,39.1,27.6,30.32,WNW,283,0.0,0.0,63,0.00,CLR,,0.00,WeatherDisplay:10.37,2013-11-09 01:46:00,
2013-11-08 20:51:00,39.1,27.6,30.32,WNW,284,0.0,0.0,63,0.00,CLR,,0.00,WeatherDisplay:10.37,2013-11-09 01:51:00,
2013-11-08 20:56:00,39.1,27.2,30.32,WNW,283,0.0,0.0,62,0.00,CLR,,0.00,WeatherDisplay:10.37,2013-11-09 01:56:00,
2013-11-08 21:01:00,39.0,27.5,30.32,WNW,283,0.0,0.0,63,0.00,CLR,,0.00,WeatherDisplay:10.37,2013-11-09 02:01:00,
2013-11-08 21:06:00,38.9,27.4,30.32,WNW,283,0.0,0.0,63,0.00,CLR,,0.00,WeatherDisplay:10.37,2013-11-09 02:06:00,
2013-11-08 21:11:00,38.8,27.3,30.32,WNW,284,0.0,0.0,63,0.00,CLR,,0.00,WeatherDisplay:10.37,2013-11-09 02:11:00,
2013-11-08 21:16:00,38.7,27.2,30.32,WNW,284,0.0,0.0,63,0.00,CLR,,0.00,WeatherDisplay:10.37,2013-11-09 02:16:00,
2013-11-08 21:21:00,38.6,27.5,30.32,WNW,284,0.0,0.0,64,0.00,CLR,,0.00,WeatherDisplay:10.37,2013-11-09 02:21:00,
2013-11-08 21:26:00,38.6,27.5,30.32,WNW,283,0.0,0.0,64,0.00,CLR,,0.00,WeatherDisplay:10.37,2013-11-09 02:26:00,
2013-11-08 21:31:00,38.5,27.4,30.32,WNW,284,0.0,0.0,64,0.00,CLR,,0.00,WeatherDisplay:10.37,2013-11-09 02:31:00,
2013-11-08 21:36:00,38.5,27.4,30.32,WNW,284,0.0,0.0,64,0.00,CLR,,0.00,WeatherDisplay:10.37,2013-11-09 02:36:00,
2013-11-08 21:41:00,38.5,27.4,30.32,WNW,284,0.0,0.0,64,0.00,CLR,,0.00,WeatherDisplay:10.37,2013-11-09 02:41:00,
2013-11-08 21:46:00,38.5,27.4,30.32,WNW,284,0.0,0.0,64,0.00,CLR,,0.00,WeatherDisplay:10.37,2013-11-09 02:46:00,
2013-11-08 21:51:00,38.4,27.3,30.32,WNW,284,0.0,0.0,64,0.00,CLR,,0.00,WeatherDisplay:10.37,2013-11-09 02:51:00,
2013-11-08 21:56:00,38.5,27.4,30.32,WNW,283,0.0,0.0,64,0.00,CLR,,0.00,WeatherDisplay:10.37,2013-11-09 02:56:00,
2013-11-08 22:01:00,38.6,27.5,30.31,WNW,283,0.0,0.0,64,0.00,CLR,,0.00,WeatherDisplay:10.37,2013-11-09 03:01:00,
2013-11-08 22:06:00,38.7,27.2,30.31,WNW,284,0.0,0.0,63,0.00,CLR,,0.00,WeatherDisplay:10.37,2013-11-09 03:06:00,
2013-11-08 22:11:00,38.8,27.7,30.31,WNW,284,0.0,0.0,64,0.00,CLR,,0.00,WeatherDisplay:10.37,2013-11-09 03:11:00,
2013-11-08 22:16:00,38.8,27.7,30.31,WNW,283,0.0,0.0,64,0.00,CLR,,0.00,WeatherDisplay:10.37,2013-11-09 03:16:00,
2013-11-08 22:21:00,38.8,27.3,30.31,WNW,283,1.0,0.0,63,0.00,CLR,,0.00,WeatherDisplay:10.37,2013-11-09 03:21:00,
2013-11-08 22:26:00,38.9,27.4,30.31,WNW,283,0.0,0.0,63,0.00,CLR,,0.00,WeatherDisplay:10.37,2013-11-09 03:26:00,
2013-11-08 22:31:00,39.0,27.1,30.31,WNW,283,1.2,1.2,62,0.00,CLR,,0.00,WeatherDisplay:10.37,2013-11-09 03:31:00,
2013-11-08 22:36:00,39.2,26.9,30.32,WNW,283,0.0,0.0,61,0.00,CLR,,0.00,WeatherDisplay:10.37,2013-11-09 03:36:00,
2013-11-08 22:41:00,39.2,26.9,30.31,WNW,283,0.0,0.0,61,0.00,CLR,,0.00,WeatherDisplay:10.37,2013-11-09 03:41:00,
2013-11-08 22:46:00,39.1,27.2,30.31,WNW,283,0.0,0.0,62,0.00,CLR,,0.00,WeatherDisplay:10.37,2013-11-09 03:46:00,
2013-11-08 22:51:00,38.9,27.0,30.31,WNW,284,0.0,0.0,62,0.00,CLR,,0.00,WeatherDisplay:10.37,2013-11-09 03:51:00,
2013-11-08 22:56:00,38.6,27.1,30.32,WNW,283,0.0,0.0,63,0.00,CLR,,0.00,WeatherDisplay:10.37,2013-11-09 03:56:00,
2013-11-08 23:01:00,38.4,26.9,30.32,WNW,284,0.0,0.0,63,0.00,CLR,,0.00,WeatherDisplay:10.37,2013-11-09 04:01:00,
2013-11-08 23:06:00,38.1,27.4,30.31,WNW,284,0.0,0.0,65,0.00,CLR,,0.00,WeatherDisplay:10.37,2013-11-09 04:06:00,
2013-11-08 23:11:00,37.8,27.1,30.32,WNW,284,0.0,0.0,65,0.00,CLR,,0.00,WeatherDisplay:10.37,2013-11-09 04:11:00,
2013-11-08 23:16:00,37.6,26.9,30.32,WNW,284,0.0,0.0,65,0.00,CLR,,0.00,WeatherDisplay:10.37,2013-11-09 04:16:00,
2013-11-08 23:21:00,37.4,26.7,30.32,WNW,284,0.0,0.0,65,0.00,CLR,,0.00,WeatherDisplay:10.37,2013-11-09 04:21:00,
2013-11-08 23:26:00,37.3,26.6,30.32,WNW,283,0.0,0.0,65,0.00,CLR,,0.00,WeatherDisplay:10.37,2013-11-09 04:26:00,
2013-11-08 23:31:00,37.1,26.8,30.32,WNW,283,0.0,0.0,66,0.00,CLR,,0.00,WeatherDisplay:10.37,2013-11-09 04:31:00,
2013-11-08 23:36:00,37.0,26.3,30.31,WNW,284,0.0,0.0,65,0.00,CLR,,0.00,WeatherDisplay:10.37,2013-11-09 04:36:00,
2013-11-08 23:41:00,37.0,26.7,30.31,WNW,284,0.0,0.0,66,0.00,CLR,,0.00,WeatherDisplay:10.37,2013-11-09 04:41:00,
2013-11-08 23:46:00,36.9,26.6,30.32,WNW,284,0.0,0.0,66,0.00,CLR,,0.00,WeatherDisplay:10.37,2013-11-09 04:46:00,
2013-11-08 23:51:00,37.0,26.3,30.31,WNW,284,0.0,0.0,65,0.00,CLR,,0.00,WeatherDisplay:10.37,2013-11-09 04:51:00,
2013-11-08 23:56:00,37.0,26.3,30.31,WNW,284,0.0,0.0,65,0.00,CLR,,0.00,WeatherDisplay:10.37,2013-11-09 04:56:00,